www.pogodaiklimat.ru

Погода и климат >> Архив погоды >> Кипр >> Akrotiri


ПОГОДА в Akrotiri

  • Прогноз погоды в Akrotiri
  • Монитор погоды в Akrotiri
  • Климат города

АРХИВ ПОГОДЫ в Akrotiri

Время (UTC), дата Ветер
(напр.,м/с)
 
Видим.   Явления Облачность Т
(С)
Тd
(С)
f
(%)
Тe
(С)
Тes
(С)
Комфортность P
(гПа)
Po
(гПа)
Тmin
(С)
Tmax
(С)
R
(мм)
R24
(мм)
S
(см)
04 13.06 СВ 1 30 км 8/8 360 м
[Sc]
+21.9 +17.8 78 +27 +27 душно 1002.3 999.3
06 13.06 ЮЗ 4 25 км 1/1 600 м
[Cu hum]
+25.7 +21.1 76 +32 +38 очень
душно
1002.7 999.7 +21.0
08 13.06 ЮЗ 6 30 км 1/1 600 м
[Cu hum]
+27.2 +21.1 69 +34 +40 очень
душно
1002.8 999.9
07 13.06 ЮЗ 5 30 км 1/1 600 м
[Cu hum Ac trans]
+25.9 +21.1 75 +33 +40 очень
душно
1002.8 999.8
09 13.06 ЮЗ 6 30 км 1/1 600 м
[Cu hum]
+27.6 +21.1 68 +35 +42 очень
душно
1002.8 999.8
10 13.06 ЮЗ 7 30 км 1/1 540 м
[Cb cap]
+27.6 +20.3 64 +34 +40 очень
душно
1002.6 999.6
11 13.06 З 7 25 км 4/4 900 м
[Cb cap]
+28.0 +21.2 67 +35 +39 очень
душно
1002.3 999.4
12 13.06 ЮЗ 6 25 км 8/1 750 м
[Cb cap Ci ing]
+26.6 +21.1 72 +34 +38 очень
душно
1002.0 999.0
14 13.06 ЮЗ 6 30 км 1/1 600 м
[Cu hum Ci ing]
+26.6 +21.6 74 +34 +37 очень
душно
1001.2 998.3
13 13.06 ЮЗ 8 30 км 1/1 540 м
[Cu hum Ci ing]
+27.9 +21.3 67 +35 +37 очень
душно
1001.5 998.5
15 13.06 З 7 25 км 5/1 600 м
[Cb calv Ci ing]
+26.7 +21.6 74 +34 +35 очень
душно
1001.3 998.4
16 13.06 ЮЗ 5 25 км 5/3 750 м
[Cb cap Ci ing]
+25.9 +21.8 78 +33 +34 очень
душно
1001.6 998.6
17 13.06 З 5 30 км 4/0
[Ac cuf Ci fib]
+25.5 +22.0 81 +33 +33 очень
душно
1001.8 998.8
18 13.06 ЮЗ 4 30 км 3/3 450 м
[St Ci fib]
+24.9 +22.3 85 +32 +32 очень
душно
1002.7 999.7 +28.9
20 13.06 ЮЗ 3 25 км 1/1 360 м
[St]
+24.8 +22.1 85 +32 +32 очень
душно
1003.8 1000.8
19 13.06 З 4 25 км 1/1 360 м
[St]
+24.9 +22.1 84 +32 +32 очень
душно
1003.3 1000.3
21 13.06 З 2 25 км 3/3 420 м
[St]
+24.5 +22.2 87 +32 +32 очень
душно
1003.8 1000.8
22 13.06 З 1 25 км 6/6 420 м
[St]
+24.2 +22.1 88 +31 +31 очень
душно
1003.5 1000.5
23 13.06 ЮЗ 3 25 км 6/6 400 м
[St]
+24.2 +22.0 88 +31 +31 очень
душно
1003.3 1000.3
00 14.06 ЮЗ 3 н/о н/о +24.4 +21.8 85 +31 +31 очень
душно
1003.3 1000.3
02 14.06 СЗ 1 25 км 8/8 360 м
[St]
+23.6 +21.5 88 +30 +30 очень
душно
1003.0 1000.0
01 14.06 З 2 25 км 5/5 420 м
[St]
+23.8 +21.8 89 +31 +31 очень
душно
1003.1 1000.1
03 14.06 З 1 20 км 4/4 450 м
[St]
+23.5 +20.6 84 +29 +29 душно 1003.7 1000.7
04 14.06 СЗ 1 20 км 1/1 450 м
[St]
+24.2 +21.0 82 +30 +32 очень
душно
1004.1 1001.1
06 14.06 ЮЗ 3 20 км 3/3 660 м
[Cu hum]
+25.7 +20.8 74 +32 +37 очень
душно
1005.0 1002.1 +23.4
09 14.06 0 н/о н/о +27.4 +20.1 64 1006.0 1003.1
12 14.06 0 н/о н/о +28.2 +20.1 61 1005.7 1002.7
15 14.06 З 6 30 км 1/1 750 м
[Cb cap]
+27.0 +20.0 66 +33 +34 очень
душно
1005.4 1002.4
18 14.06 З 5 35 км ясно +24.9 +20.1 75 +31 +31 очень
душно
1006.0 1003.0 +29.2
21 14.06 З 3 35 км ясно +23.7 +20.9 84 +30 +30 очень
душно
1006.9 1003.9
00 15.06 З 2 40 км ясно +22.8 +20.3 86 +30 +30 очень
душно
1006.3 1003.3
03 15.06 СЗ 1 35 км 1/1 600 м
[Sc]
+21.4 +19.4 88 +26 +26 душно 1006.7 1003.7
06 15.06 ЮЗ 2 25 км 1/1 600 м
[Sc]
+26.6 +20.6 70 +33 +41 очень
душно
1007.7 1004.7 +21.1
07 15.06 ЮЗ 5 25 км 1/1 660 м
[Cu hum]
+26.4 +20.7 71 +33 +40 очень
душно
1008.0 1005.0
08 15.06 ЮЗ 5 25 км 1/1 750 м
[Cu Sc]
+26.8 +21.3 72 +34 +42 очень
душно
1008.1 1005.1
09 15.06 ЮЗ 5 25 км 1/1 750 м
[Cu hum]
+27.3 +21.1 69 +34 +44 очень
душно
1008.3 1005.3
10 15.06 ЮЗ 5 25 км 1/1 900 м
[Cu med, cong]
+27.5 +21.3 69 +35 +45 очень
душно
1008.2 1005.2
12 15.06 ЮЗ 6 35 км 1/1 1200 м
[Cu med, cong Ac trans]
+28.2 +21.3 66 +36 +41 очень
душно
1008.2 1005.2
13 15.06 ЮЗ 6 35 км 1/1 900 м
[Cu med, cong]
+28.1 +20.5 63 +35 +39 очень
душно
1008.2 1005.2
14 15.06 ЮЗ 6 н/о н/о +28.0 +20.1 62 +34 +34 очень
душно
1007.9 1004.9
15 15.06 ЮЗ 5 25 км 1/1 1200 м
[Cu hum]
+27.4 +20.1 64 +34 +35 очень
душно
1007.3 1004.4
17 15.06 З 4 40 км ясно +25.9 +21.4 76 +33 +33 очень
душно
1008.0 1005.0
16 15.06 ЮЗ 5 30 км 1/1 1200 м
[Cu hum]
+27.2 +20.6 67 +34 +34 очень
душно
1007.6 1004.6
18 15.06 З 2 40 км ясно +25.4 +21.9 81 +33 +33 очень
душно
1008.5 1005.5
19 15.06 ЮЗ 4 40 км ясно +25.0 +21.9 83 +32 +32 очень
душно
1008.9 1005.9
20 15.06 Ю 1 40 км ясно +24.3 +21.7 85 +31 +31 очень
душно
1009.1 1006.1
21 15.06 ЮЗ 2 40 км ясно +24.0 +22.1 89 +31 +31 очень
душно
1008.8 1005.8
23 15.06 Ю 3 н/о н/о +23.3 +22.2 94 +32 +32 очень
душно
1008.2 1005.2
22 15.06 ЮЗ 2 40 км ясно +23.2 +21.7 91 +31 +31 очень
душно
1008.5 1005.5
00 16.06 СВ 3 н/о н/о +22.2 +21.3 95 +29 +29 очень
душно
1008.1 1005.1
01 16.06 В 3 20 км 1/0
[Ac cast]
+22.5 +21.6 95 +30 +30 очень
душно
1007.4 1004.4
02 16.06 В 2 15 км 4/1 90 м
[St Ac trans]
+22.3 +21.6 96 +29 +29 очень
душно
1007.5 1004.4
03 16.06 В 4 7000 м мгла 6/3 180 м
[St Ac trans]
+23.4 +22.4 94 +32 +32 очень
душно
1008.0 1004.9
04 16.06 СВ 3 14 км туман на расстоянии 6/1 120 м
[St Ac trans]
+23.7 +21.9 90 +31 +31 очень
душно
1008.3 1005.3
06 16.06 С 2 40 км 9/0
[Ac trans Ci sp]
+24.9 +22.1 84 +32 +38 очень
душно
1009.9 1006.9 +22.0
09 16.06 СВ 2 30 км 6/0
[Ac trans]
+30.4 +16.1 42 +33 +46 душно 1008.8 1005.9
12 16.06 В 3 50 км 9/0
[Ac trans Ci fib]
+29.5 +15.3 42 +32 +41 душно 1008.1 1005.2
13 16.06 ЮВ 4 50 км 9/0
[Ac trans Ci sp]
+29.0 +19.1 55 +34 +39 очень
душно
1007.7 1004.7
14 16.06 В 4 40 км 9/0
[Ac trans Ci fib]
+28.1 +19.4 59 +34 +36 очень
душно
1007.1 1004.1
15 16.06 Ю 3 50 км 9/1 600 м
[Cu hum Ac cast]
+26.3 +23.0 82 +35 +36 очень
душно
1007.9 1004.9
16 16.06 Ю 4 50 км 6/0
[Ac cast Ci fib]
+28.0 +20.6 64 +35 +35 очень
душно
1007.6 1004.6
17 16.06 З 4 50 км 6/1 750 м
[Cu hum Ci fib]
+26.2 +23.0 83 +35 +35 очень
душно
1007.3 1004.4
18 16.06 З 3 40 км 1/0
[Ci fib]
+25.4 +22.7 85 +33 +33 очень
душно
1007.4 1004.5 +32.5
19 16.06 З 4 35 км 1/0
[Ci fib]
+25.0 +23.0 89 +33 +33 очень
душно
1007.5 1004.5
20 16.06 З 5 35 км 1/1 360 м
[St]
+24.8 +22.7 88 +33 +33 очень
душно
1008.0 1005.0
21 16.06 З 5 25 км 1/1 420 м
[Frnb]
+24.6 +22.9 90 +33 +33 очень
душно
1008.3 1005.3
22 16.06 З 7 25 км 1/1 480 м
[Sc]
+24.5 +21.2 82 +31 +31 очень
душно
1008.6 1005.6
23 16.06 З 6 30 км 1/1 540 м
[Sc]
+24.2 +19.5 75 +29 +29 душно 1008.7 1005.7
00 17.06 З 5 30 км 1/1 840 м
[Sc]
+24.0 +19.2 75 +29 +29 душно 1008.6 1005.6
01 17.06 З 5 30 км 3/3 800 м
[Sc]
+23.8 +19.5 77 +29 +29 душно 1008.7 1005.7
02 17.06 З 6 30 км 3/3 750 м
[Sc]
+24.1 +19.7 76 +29 +29 душно 1008.6 1005.6
03 17.06 З 5 30 км 1/1 660 м
[Cu hum]
+23.9 +20.3 80 +30 +30 очень
душно
1008.6 1005.6
04 17.06 З 5 30 км 1/1 630 м
[Cu hum]
+24.5 +19.8 75 +30 +31 очень
душно
1009.3 1006.3
05 17.06 З 6 35 км 1/1 840 м
[Cu hum]
+25.3 +19.4 70 +31 +32 очень
душно
1009.7 1006.7
06 17.06 З 7 40 км 1/1 840 м
[Cu hum]
+26.4 +19.5 66 +32 +34 очень
душно
1009.9 1007.0 +23.7
07 17.06 З 8 40 км 1/1 900 м
[Cu hum]
+25.9 +19.3 67 +31 +34 очень
душно
1010.0 1007.0
08 17.06 З 8 40 км 1/1 900 м
[Cu hum]
+26.9 +19.5 64 +33 +36 очень
душно
1010.0 1007.0
09 17.06 ЮЗ 8
{13}
40 км 1/1 900 м
[Cu hum]
+27.6 +20.3 64 +34 +37 очень
душно
1010.2 1007.2
10 17.06 З 8 40 км 1/1 900 м
[Cu hum]
+27.2 +20.4 66 +34 +38 очень
душно
1010.0 1007.0
11 17.06 З 8
{13}
40 км 1/1 900 м
[Cu hum]
+26.9 +19.7 65 +33 +36 очень
душно
1009.7 1006.8
12 17.06 З 8-13
{13}
40 км 1/1 720 м
[Cu med, cong]
+26.3 +20.0 68 +32 +35 очень
душно
1009.6 1006.6
13 17.06 З 8 40 км 1/1 800 м
[Cu med, cong]
+26.9 +20.0 66 +33 +35 очень
душно
1009.2 1006.2
14 17.06 З 8 40 км 1/1 900 м
[Cu hum]
+27.1 +20.3 66 +33 +35 очень
душно
1009.0 1006.0
15 17.06 З 7 40 км 1/1 840 м
[Cu hum]
+25.8 +19.7 69 +31 +32 очень
душно
1008.9 1005.9
16 17.06 З 8 40 км 1/1 900 м
[Cu hum]
+25.7 +20.0 71 +32 +32 очень
душно
1009.0 1006.0
17 17.06 З 6 40 км 1/1 750 м
[Cu hum]
+24.8 +19.6 73 +30 +30 душно 1009.1 1006.1
18 17.06 З 6 35 км 1/1 720 м
[Cu hum]
+24.5 +20.0 76 +30 +30 очень
душно
1009.4 1006.4 +28.5
19 17.06 З 5 35 км 1/1 750 м
[Sc]
+24.3 +20.4 79 +30 +30 очень
душно
1009.7 1006.7
20 17.06 З 6 30 км 1/1 720 м
[Sc]
+24.2 +20.5 80 +30 +30 очень
душно
1009.6 1006.6
21 17.06 З 6 30 км 1/1 600 м
[Sc]
+23.9 +20.3 80 +30 +30 очень
душно
1009.3 1006.3
22 17.06 З 5 25 км 1/1 600 м
[Sc]
+23.7 +20.1 80 +29 +29 душно 1008.7 1005.7
23 17.06 З 5 н/о н/о +23.8 +19.8 78 +29 +29 душно 1008.1 1005.1
00 18.06 З 5 20 км 4/4 600 м
[Sc]
+23.7 +20.1 80 +29 +29 душно 1007.8 1004.8
01 18.06 СЗ 2 20 км 6/6 600 м
[Sc]
+23.0 +19.9 83 +30 +30 очень
душно
1007.4 1004.4
02 18.06 З 2 30 км 4/4 660 м
[Cu Sc]
+22.9 +20.0 84 +30 +30 очень
душно
1007.7 1004.7
03 18.06 З 2 н/о н/о +22.7 +19.9 84 +29 +29 очень
душно
1007.7 1004.7
04 18.06 З 3 40 км 5/5 630 м
[Cu Sc]
+24.3 +20.0 77 +30 +30 очень
душно
1007.8 1004.8
06 18.06 З 7 60 км 1/1 900 м
[Cu hum]
+25.3 +19.4 70 +31 +33 очень
душно
1008.1 1005.1 +22.6
09 18.06 З 8 40 км 1/1 900 м
[Cu hum]
+27.4 +19.5 62 +33 +36 очень
душно
1008.1 1005.1
11 18.06 З 9
{13}
40 км 1/1 900 м
[Cb calv]
+27.2 +20.4 66 +34 +36 очень
душно
1007.8 1004.9
12 18.06 З 10
{13}
40 км 1/1 900 м
[Cu hum]
+27.8 +20.1 63 +34 +35 очень
душно
1007.7 1004.7
13 18.06 З 9
{14}
40 км 1/1 900 м
[Cu hum]
+27.0 +20.4 67 +33 +34 очень
душно
1007.5 1004.5
14 18.06 З 10
{14}
40 км 1/1 900 м
[Cu hum]
+26.8 +20.4 68 +33 +34 очень
душно
1007.2 1004.2
15 18.06 З 10
{13}
40 км 1/1 840 м
[Cu Sc]
+26.5 +20.7 70 +33 +33 очень
душно
1007.1 1004.1
16 18.06 З 9
{13}
40 км 1/1 900 м
[Cu hum Ac trans]
+25.8 +20.6 73 +32 +32 очень
душно
1007.2 1004.2
17 18.06 З 7 50 км 1/1 1500 м
[Cu Sc]
+24.8 +20.3 76 +31 +31 очень
душно
1007.6 1004.6
18 18.06 З 6 40 км 1/1 1500 м
[Cu Sc]
+24.4 +20.7 80 +30 +30 очень
душно
1007.9 1004.9 +28.3
19 18.06 З 5 40 км 1/1 1500 м
[Sc]
+24.2 +20.9 82 +30 +30 очень
душно
1008.0 1005.0
20 18.06 З 6 35 км 1/1 1500 м
[Sc]
+24.1 +20.4 80 +30 +30 очень
душно
1008.3 1005.2
21 18.06 З 5 35 км ясно +24.0 +20.5 81 +30 +30 очень
душно
1008.2 1005.2
22 18.06 З 6 35 км 1/1 1500 м
[Sc]
+23.9 +19.7 77 +29 +29 душно 1008.2 1005.2
23 18.06 З 4 30 км ясно +23.1 +19.5 80 +30 +30 очень
душно
1008.1 1005.0
00 19.06 З 4 30 км 1/1 1200 м
[Sc]
+23.4 +19.9 81 +30 +30 очень
душно
1008.1 1005.0
01 19.06 З 4 30 км ясно +23.2 +20.1 83 +30 +30 очень
душно
1008.0 1005.0
02 19.06 З 3 40 км 1/1 900 м
[Sc]
+22.8 +19.9 84 +29 +29 очень
душно
1008.4 1005.3
03 19.06 З 3 40 км 1/1 600 м
[Cu hum]
+23.0 +19.9 83 +30 +30 очень
душно
1008.4 1005.4
04 19.06 В 1 50 км 1/1 600 м
[Cu hum]
+23.5 +18.4 73 +28 +30 душно 1008.9 1005.9
05 19.06 СЗ 1 50 км 1/1 600 м
[Cu hum]
+25.1 +19.9 73 +31 +36 очень
душно
1009.2 1006.2
06 19.06 СВ 2 50 км 1/1 750 м
[Cu hum]
+25.5 +18.9 67 +30 +39 душно 1009.5 1006.5 +22.2
07 19.06 ЮЗ 5 50 км 1/1 750 м
[Cu hum]
+26.2 +19.9 68 +32 +39 очень
душно
1009.9 1006.9
08 19.06 ЮЗ 5 50 км 1/1 840 м
[Cu med, cong]
+26.9 +20.0 66 +33 +41 очень
душно
1010.0 1007.0
09 19.06 ЮЗ 7 50 км 1/1 900 м
[Cu med, cong]
+27.6 +20.3 64 +34 +40 очень
душно
1010.1 1007.1
10 19.06 ЮЗ 6 50 км 1/1 900 м
[Cu med, cong]
+27.0 +20.3 67 +33 +41 очень
душно
1010.0 1007.0
11 19.06 ЮЗ 7 50 км 3/3 840 м
[Cu med, cong]
+27.8 +20.3 64 +34 +38 очень
душно
1010.0 1007.0
12 19.06 З 7 45 км 3/3 750 м
[Cu med, cong]
+27.6 +20.3 64 +34 +37 очень
душно
1009.9 1006.9
13 19.06 З 8 45 км 1/1 900 м
[Cu med, cong]
+27.2 +20.5 67 +34 +36 очень
душно
1009.7 1006.7
14 19.06 З 7 45 км 1/1 900 м
[Cu Sc]
+27.1 +20.2 66 +33 +35 очень
душно
1009.7 1006.7
15 19.06 З 8 50 км 1/1 900 м
[Cu hum Ac trans]
+26.9 +19.0 62 +32 +33 очень
душно
1009.6 1006.6
16 19.06 З 7 50 км 3/1 900 м
[Cu hum Ac trans Ci fib]
+25.8 +20.5 73 +32 +32 очень
душно
1009.8 1006.8
17 19.06 З 6 50 км 1/1 900 м
[Cu hum]
+24.9 +20.3 76 +31 +31 очень
душно
1010.0 1007.0
18 19.06 З 5 40 км 1/1 900 м
[Sc]
+24.5 +19.9 76 +30 +30 очень
душно
1010.3 1007.3 +28.6
19 19.06 З 5 40 км 1/1 900 м
[Sc]
+24.3 +20.2 78 +30 +30 очень
душно
1011.0 1008.0
20 19.06 З 4 40 км ясно +23.9 +20.5 81 +30 +30 очень
душно
1010.9 1007.9
21 19.06 З 4 40 км ясно +23.7 +19.9 79 +29 +29 душно 1010.8 1007.8
22 19.06 З 4 40 км ясно +23.0 +19.7 82 +30 +30 очень
душно
1010.5 1007.5
23 19.06 З 4 40 км ясно +22.3 +19.1 82 +28 +28 душно 1010.5 1007.5
00 20.06 З 4 40 км ясно +22.3 +18.3 78 +27 +27 душно 1010.3 1007.3
01 20.06 З 3 40 км ясно +22.4 +18.1 77 +28 +28 душно 1010.4 1007.4
02 20.06 З 2 40 км ясно +21.3 +17.9 81 +25 +25 комфорт 1010.9 1007.9

 

Местоположение метеостанции Akrotiri (Кипр): широта 34.58 долгота 32.98 высота над уровнем моря 23 м.

В архиве по умолчанию представлена погода в Akrotiri за последнюю неделю. Архивные данные за месяц целиком и за предыдущие месяцы, начиная с января 2011 года, Вы можете получить, выбрав интересующий диапазон дат из раскрывающегося списка и нажав кнопку "Ввод!".


*Определитесь, кто Вы:
робот инопланетянин человек

Внимание! Время в таблицах - всемирное. Для получения местного времени необходимо прибавить поправку, которая в Akrotiri равна 2 ч.

Смотрите также архив погоды в соседних городах и на ближайших метеорологических станциях:

Погода в Paphos (Кипр) (48 км)
Погода в Larnaca (Кипр) (68 км)
Погода в Athalassa (Кипр) (74 км)
Погода в Nicosia (Кипр) (79 км)
Погода в Akdeniz (Кипр) (80 км)
Погода в Kyrenia (Кипр) (91 км)
Погода в Gecitkale (Кипр) (100 км)
Погода в Lefkoniko (Кипр) (101 км)
Погода в Unknown (Кипр) (104 км)
Погода в Famagusta (Кипр) (108 км)

Пояснения к столбцам:

Ветер - указаны скорость ветра в м/с - средняя за 10 мин, порывы в срок и между сроками (в фигурных скобках) и направление, откуда дует ветер: С - северный, СВ - северо-восточный, В - восточный, ЮВ - юго-восточный, Ю - южный, ЮЗ - юго-западный, З - западный, СЗ - северо-западный.
Видимость - горизонтальная дальность видимости в метрах или километрах. При видимости от 1 до 10 км при отсутствии осадков обычно наблюдается дымка, при ухудшении видимости до 1 км и менее - туман. В сухую погоду видимость может ухудшаться дымом, пылью или мглою.
Явления - указаны атмосферные явления, наблюдавшиеся в срок или в последний час перед сроком; фигурными скобками обозначены явления, наблюдавшиеся между сроками (за 1-3 часа до срока); квадратными скобками обозначены град или гололедные отложения с указанием их диаметра в мм.
Облачность - указаны через наклонную черту общая и нижняя облачность в баллах и высота нижней границы облаков в метрах; квадратными скобками обозначены формы облаков: Ci - перистые, Cs - перисто-слоистые, Cc - перисто-кучевые, Ac - высококучевые, As - высокослоистые, Sc - слоисто-кучевые, Ns - слоисто-дождевые, Cu - кучевые, Cb - кучево-дождевые. Подробнее классификацию облаков см. в Атласе облаков (PDF).
T - Температура воздуха - температура, измеренная на высоте 2 м над землей.
Td - Температура точки росы - температура, при понижении до которой содержащийся в воздухе водяной пар достигнет насыщения.
f - Относительная влажность воздуха - влажноcть воздуха, измеренная на высоте 2 м над землей.
Te - Эффективная температура - температура, которую ощущает одетый по сезону человек в тени. Характеристика душности погоды. При расчете учитывается влияние влажности воздуха и скорости ветра на теплоощущения человека.
Tes - Эффективная температура на солнце - температура, которую ощущает человек, с поправкой на солнечный нагрев. Характеристика знойности погоды. Зависит от высоты солнца над горизонтом, облачности и скорости ветра. Ночью, в пасмурную погоду, а также при ветре 12 м/с и более поправка равна нулю.
P - Атмосферное давление - приведенное к уровню моря атмосферное давление.
Po - Атмосферное давление - измеренное на уровне метеостанции атмосферное давление.
Tmin - Минимальная температура - минимум температуры воздуха на высоте 2 м над землей.
Tmax - Максимальная температура - максимум температуры воздуха на высоте 2 м над землей.
R - Количество осадков - Количество выпавших осадков за период времени, мм. При наведении курсора мыши на число - период времени, за который выпало указанное количество осадков.
R24 - Количество осадков - Количество выпавших осадков за 24 часа, мм.
S - Снежный покров - Высота снежного покрова, см. При наведении курсора мыши на число - состояние снежного покрова и степень покрытия местности в баллах.